Lid_Strength_Index
-0 -0 -0 -0 -1 -1 -1 -0 -1 -0 -0 -0 -1 -1 -0 0 2 1 1 -1 -1 -1 -0 -0 0 0 1 1 2 2 1 1 1 1 1 2 2 3 2 2 1 1 0
0 -0 -0 -0 -0 -1 -1 -0 -0 -0 -0 -0 -0 -1 -1 -0 1 2 1 -0 -2 -1 -1 -1 -1 0 1 2 2 2 2 2 2 1 1 2 2 3 2 2 1 1 1
1 0 -0 -0 0 -0 0 0 1 0 -0 -0 -0 -1 -1 -1 0 2 1 0 -1 -2 -1 -1 -1 -1 0 1 2 2 2 3 3 2 1 2 2 3 3 3 2 1 2
1 0 -0 -0 -1 -0 0 1 1 1 1 0 0 -0 -0 -1 -1 1 1 0 -1 -1 -1 -1 -1 -1 -1 0 1 2 2 3 3 4 2 2 2 3 3 3 3 1 1
1 1 -0 -0 0 0 1 1 1 1 1 1 1 0 -0 -0 -0 1 1 1 0 -1 -1 -1 -2 -2 -1 -1 -0 0 2 3 3 3 4 4 4 4 3 3 3 2 2
2 1 1 0 0 1 0 0 1 1 1 0 1 1 0 -0 -0 0 1 0 0 -0 -1 -0 -1 -1 -2 -1 -1 -0 0 2 4 4 4 5 5 4 3 3 3 2 2
2 2 2 2 1 1 0 1 1 1 1 1 1 2 1 0 1 1 1 1 1 0 0 0 -0 -1 -1 -2 -1 -1 0 1 3 4 5 5 5 4 3 3 3 2 2
2 2 3 3 -0 0 0 1 0 2 1 1 2 3 4 3 1 1 0 0 1 1 1 0 0 0 -0 -1 -1 -1 0 1 2 4 5 5 5 5 4 4 3 2 2
2 2 2 1 -0 1 1 1 1 1 2 1 1 2 5 5 3 1 1 0 0 0 0 -0 -0 0 -0 -0 -0 -0 -0 0 2 4 5 6 6 5 5 4 3 3 2
2 1 1 0 -0 1 1 1 1 1 1 2 2 1 2 2 5 5 2 1 0 0 -0 -0 0 0 0 0 0 0 1 1 2 4 6 6 6 5 5 4 3 3 3
2 1 0 -0 -0 1 1 1 1 1 0 1 2 2 2 3 3 4 5 3 1 0 -0 0 0 0 0 0 -0 0 0 1 3 5 7 7 6 6 6 4 3 3 3
3 1 -0 -0 0 1 1 1 0 1 1 1 1 2 2 3 3 3 4 4 3 2 0 -0 1 1 1 1 0 0 0 2 4 6 7 8 8 7 6 5 3 3 3
3 3 0 0 1 1 1 1 0 1 1 1 1 1 1 1 1 2 3 3 4 2 1 0 -0 0 1 2 1 0 0 3 5 6 7 8 8 8 7 5 4 4 4
2 2 0 0 0 1 1 1 1 1 1 1 1 1 1 1 1 1 2 3 4 4 2 2 0 -0 2 1 1 1 3 4 5 6 8 8 9 8 7 4 5 5 5
1 2 0 0 0 1 1 1 1 1 1 1 1 1 1 1 1 1 1 1 3 5 5 2 2 0 2 1 1 2 4 5 6 7 8 8 9 9 7 6 6 6 6
1 1 0 0 0 1 0 1 1 2 2 1 1 1 1 1 1 1 1 1 2 3 5 2 1 2 1 1 0 4 5 5 6 7 8 9 9 9 8 8 6 6 6
1 1 1 1 1 1 1 1 2 3 2 2 1 1 1 0 1 1 0 1 1 2 4 2 1 2 2 3 5 4 5 7 7 8 9 9 10 9 9 9 7 7 7
2 1 1 1 1 1 1 1 2 2 3 2 1 1 1 1 1 0 1 1 1 1 2 3 3 2 3 5 6 6 6 7 7 8 10 11 10 10 10 10 9 8 8
1 2 1 1 1 1 1 2 3 3 3 2 1 1 1 1 1 1 1 1 1 1 1 2 3 2 5 5 6 6 7 7 7 7 9 11 10 10 10 9 9 8 8
3 3 2 1 1 1 1 3 4 3 3 2 1 1 1 1 1 1 1 1 1 1 1 2 2 2 5 6 6 7 8 7 7 7 8 10 10 10 10 11 10 8 8
2 3 2 2 2 2 2 3 4 4 3 2 2 1 1 1 1 0 1 1 1 1 2 2 2 3 5 7 8 7 8 8 8 8 9 9 11 13 12 12 10 9 9
3 2 3 3 3 2 6 6 4 4 3 2 2 2 1 1 2 2 3 3 1 1 2 2 2 3 3 5 7 7 8 9 10 8 9 10 11 13 13 12 11 11 10
4 3 2 2 2 2 6 7 6 2 2 2 2 2 2 2 2 0 3 3 4 4 2 1 2 2 2 2 6 8 8 8 8 9 10 11 10 13 13 12 11 11 11
3 4 3 2 1 2 7 7 5 2 2 2 2 2 2 1 2 2 2 2 1 1 1 0 0 0 0 1 4 6 6 7 9 9 9 11 11 13 13 13 11 12 11
3 3 3 3 2 1 6 8 6 2 1 2 2 2 2 2 5 7 2 2 2 2 4 6 4 4 6 6 4 6 7 8 9 9 8 9 11 13 14 13 12 12 12
2 2 2 2 3 2 6 7 6 3 3 2 2 2 6 3 7 9 2 2 2 2 2 2 0 1 3 4 6 4 6 7 8 9 8 9 11 13 15 13 12 12 11